Tracking 35331 objects as of 15-Sep-2026
HD Live streaming from Space Station
objects crossing your sky now

FORMOSAT7-3/COSMIC2-3

Track FORMOSAT7-3/COSMIC2-3 now!
10-day predictions
FORMOSAT7-3/COSMIC2-3 is classified as:


NORAD ID: 44343
Int'l Code: 2019-036E
Launch date: June 25, 2019
Source: Taiwan (Republic of China) (ROC)
Launch site: AIR FORCE EASTERN TEST RANGE (AFETR)

Uplink (MHz):
Downlink (MHz):
Beacon (MHz): 400.900
Mode: CW::unknown
Call sign:
Status:

Your satellite tracking list
Your tracking list is empty




NASA's NSSDC Master Catalog

Two Line Element Set (TLE):
1 44343U 19036E   26257.45217214  .00003755  00000-0  20218-3 0  9991
2 44343  23.9990 283.8894 0000266 227.8323 132.2159 15.10377218396753
Source of the keplerian elements: AFSPC